Flag for Greenland Weather past 2 weeks in Danmarkshavn, Greenland

Now
55 °F

Sunny.


Feels Like: 51 °F
Forecast: 39 / 42 °F
Wind: 12 mph from West

Location: Danmarkshavn

Current Time: Jul 24, 2014 at 4:06:15 PM

Latest Report: Jul 24, 2014 at 3:00 PM


Visibility: 25 mi

Pressure: 29.79 "Hg

Humidity: 45%

Dew point: 33 °F

Location of DanmarkshavnLocation

Historic Weather in Danmarkshavn — Graph

°F

Danmarkshavn temperature yesterday

Maximum temperature yesterday: 53 °F (at 5:00 PM)
Minimum temperature yesterday: 43 °F (at 1:00 AM)
Average temperature yesterday: 49 °F

Past Weeks' High & Low Weather Summary

 TemperatureHumidityPressure
High58 °F (Jul 21, 3:00 PM)100% (Jul 10, 1:00 AM)30.14 "Hg (Jul 10, 1:00 AM)
Low32 °F (Jul 13, 11:00 PM)41% (Jul 24, 1:00 PM)29.54 "Hg (Jul 23, 9:00 PM)
Average42 °F82%29.87 "Hg
* Reported Jul 9 3:00 PM — Jul 24 2:00 PM, Danmarkshavn, Weather by CustomWeather, © 2014

Note: Actual official high and low records may vary slightly from our data, if they occured in-between our weather recording intervals... More about our weather records

Advertising

Danmarkshavn weather history for previous 24 hours

 ConditionsComfort  
Time TempWeatherWind HumidityBarometerVisibility
2:00 PM
Jul 24
54 °FSunny.14 mph43%29.79 "Hg28 mi
1:00 PM56 °FSunny.12 mph41%29.79 "Hg25 mi
12:00 PM55 °FSunny.15 mph46%29.79 "Hg28 mi
11:00 AM55 °FSunny.12 mph44%29.79 "Hg25 mi
10:00 AM53 °FSunny.12 mph47%29.79 "Hg19 mi
9:00 AM51 °FSunny.10 mph55%29.79 "Hg31 mi
8:00 AM49 °FSunny.17 mph60%29.77 "Hg31 mi
7:00 AM50 °FSunny.13 mph56%29.77 "Hg28 mi
6:00 AM48 °FSunny.14 mph58%29.75 "Hg31 mi
3:00 AM51 °FSunny.6 mph65%29.73 "Hg28 mi
2:00 AM49 °FSunny.10 mph68%29.71 "Hg31 mi
1:00 AM49 °FCool.13 mph61%29.68 "Hg31 mi
12:00 AM50 °FPartly sunny.22 mph59%29.64 "Hg31 mi
11:00 PM
Jul 23
53 °FOvercast.17 mph58%29.59 "Hg31 mi
10:00 PM50 °FOvercast.24 mph62%29.57 "Hg31 mi
9:00 PM49 °FOvercast.22 mph61%29.54 "Hg28 mi
8:00 PM49 °FOvercast.14 mph60%29.55 "Hg31 mi
7:00 PM47 °FSunny.15 mph64%29.55 "Hg31 mi
6:00 PM50 °FSunny.16 mph64%29.56 "Hg31 mi
5:00 PM53 °FSunny.13 mph59%29.56 "Hg31 mi
4:00 PM51 °FSunny.12 mph63%29.57 "Hg25 mi
Weather by CustomWeather, © 2014

See weather overviewHow to use our weather pages